Hourly Data Report for September 16, 2017

All times are specified in Local Standard Time (LST). Add 1 hour to adjust for Daylight Saving Time where and when it is observed.

ARCTIC BAY CS
NUNAVUT

72°59'34.000" N
85°00'44.000" W
10.00 m
2400404
71592
XAT

Download Data

Hourly Data (September 2017)
Hourly Data Report for September 16, 2017
Temp Definition
°C
Dew Point Temp Definition
°C
Rel Hum Definition
%
Wind Dir Definition
10's deg

Wind Spd Definition
km/h
Visibility Definition
km
Stn Press Definition
kPa
Hmdx Definition


Wind Chill Definition


Weather Definition


TIME
00:00 0.4 -0.9 91 11 6   100.78     LegendNANA
01:00 0.9 -1.2 86 7 2   100.78     LegendNANA
02:00 1.2 -0.8 87 22 6   100.78     LegendNANA
03:00 0.5 -0.6 92 2 3   100.77     LegendNANA
04:00 1.4 -0.8 86 27 14   100.76     LegendNANA
05:00 1.4 -1.0 84 27 14   100.77     LegendNANA
06:00 1.5 -1.0 83 27 16   100.79     LegendNANA
07:00 1.5 -0.6 86 28 19   100.79     LegendNANA
08:00 0.2 -2.0 85 32 22   100.83     LegendNANA
09:00 -1.1 -4.0 81 34 24   100.90   -7 LegendNANA
10:00 -1.2 -5.4 73 32 17   100.95   -6 LegendNANA
11:00 -1.3 -5.4 74 31 23   101.00   -7 LegendNANA
12:00 -1.2 -5.9 70 33 22   101.04   -7 LegendNANA
13:00 -1.8 -6.8 69 33 22   101.10   -8 LegendNANA
14:00 -2.2 -6.9 70 33 16   101.17   -7 LegendNANA
15:00 -2.0 -6.8 70 32 21   101.26   -8 LegendNANA
16:00 -1.9 -7.2 67 34 7   101.30   -5 LegendNANA
17:00 -1.5 -7.2 65 32 5   101.33   -3 LegendNANA
18:00 -1.7 -5.7 74 30 14   101.38   -6 LegendNANA
19:00 -1.6 -5.4 75 31 21   101.38   -7 LegendNANA
20:00 -1.7 -6.3 71 29 18   101.39   -7 LegendNANA
21:00 -1.8 -5.6 75 31 20   101.38   -8 LegendNANA
22:00 -1.9 -5.3 77 32 20   101.40   -8 LegendNANA
23:00 -2.2 -5.8 76 33 17   101.39   -8 LegendNANA

Notes on Data Quality.

Legend

  • E = Estimated
  • M = Missing
  • NA = Not Available
  • ‡ = Partner data that is not subject to review by the National Climate Archives
Date modified: